Flag for Germany Weather past 2 weeks in Ravensburg, Baden-Württemberg, Germany

Now
63 °F

Sunny.


Feels Like: 63 °F
Forecast: 39 / 45 °F
Wind: 13 mph from Southwest

Location: Friedrichshafen Airport

Current Time: Oct 21, 2014 at 5:48:00 PM

Latest Report: Oct 21, 2014 at 5:20 PM


Visibility: 10 mi

Pressure: 29.80 "Hg

Humidity: 56%

Dew point: 46 °F

Location of RavensburgLocation

Historic Weather in Ravensburg — Graph

°F

Ravensburg temperature yesterday

Maximum temperature yesterday: 70 °F (at 2:20 PM)
Minimum temperature yesterday: 46 °F (at 4:20 AM)
Average temperature yesterday: 58 °F

Past Weeks' High & Low Weather Summary

 TemperatureHumidityPressure
High79 °F (Oct 9, 2:20 PM)94% (Oct 7, 1:20 AM)30.27 "Hg (Oct 7, 1:20 AM)
Low45 °F (Oct 19, 3:20 AM)30% (Oct 9, 2:20 PM)29.77 "Hg (Oct 13, 2:50 AM)
Average58 °F80%29.96 "Hg
* Reported Oct 6 4:20 PM — Oct 21 4:50 PM, Ravensburg, Weather by CustomWeather, © 2014

Note: Actual official high and low records may vary slightly from our data, if they occured in-between our weather recording intervals... More about our weather records

Advertising

Ravensburg weather history for previous 24 hours

 ConditionsComfort  
Time TempWeatherWind HumidityBarometerVisibility
4:50 PM
Oct 21
63 °FScattered clouds.12 mph56%29.80 "HgN/A
4:20 PM63 °FPartly sunny.13 mph68%29.83 "HgN/A
3:50 PM63 °FPartly sunny.13 mph68%29.83 "HgN/A
3:20 PM61 °FBroken clouds.12 mph77%29.86 "HgN/A
2:50 PM61 °FBroken clouds.14 mph72%29.86 "HgN/A
2:20 PM61 °FSprinkles. Partly sunny.14 mph72%29.86 "HgN/A
1:50 PM61 °FSprinkles. Cloudy.8 mph72%29.89 "HgN/A
1:20 PM63 °FBroken clouds.9 mph68%29.92 "HgN/A
12:50 PM63 °FPassing clouds.15 mph68%29.92 "HgN/A
12:20 PM61 °FScattered clouds.12 mph77%29.95 "HgN/A
11:50 AM61 °FBroken clouds.9 mph77%29.95 "HgN/A
11:20 AM61 °FBroken clouds.10 mph72%29.98 "HgN/A
10:50 AM61 °FBroken clouds.9 mph77%29.98 "HgN/A
10:20 AM59 °FBroken clouds.6 mph82%29.98 "HgN/A
9:50 AM57 °FSprinkles. Mostly cloudy.7 mph88%29.98 "HgN/A
9:20 AM57 °FSprinkles. Mostly cloudy.5 mph88%29.98 "HgN/A
8:50 AM57 °FSprinkles. Cloudy.6 mph82%29.98 "HgN/A
8:20 AM57 °FDrizzle. Mostly cloudy.7 mph82%29.98 "HgN/A
7:50 AM57 °FPassing clouds.7 mph82%29.98 "HgN/A
7:20 AM59 °FMostly cloudy.5 mph77%29.98 "HgN/A
6:50 AM59 °FMostly cloudy.7 mph82%29.98 "HgN/A
6:20 AM59 °FMostly cloudy.7 mph82%29.98 "HgN/A
5:50 AM57 °FMostly cloudy.2 mph88%29.98 "HgN/A
4:50 AM57 °FOvercast.1 mph88%30.01 "HgN/A
4:20 AM57 °FMostly cloudy.No wind88%30.01 "HgN/A
3:50 AM57 °FSprinkles. Mostly cloudy.3 mph88%30.01 "HgN/A
3:20 AM57 °FOvercast.3 mph88%30.01 "HgN/A
2:50 AM57 °FOvercast.2 mph88%30.04 "HgN/A
2:20 AM59 °FSprinkles. Overcast.2 mph82%30.04 "HgN/A
1:50 AM59 °FLight rain. Overcast.6 mph88%30.04 "HgN/A
1:20 AM59 °FLight rain. Overcast.7 mph88%30.04 "HgN/A
12:50 AM59 °FLight rain. Mostly cloudy.9 mph88%30.04 "HgN/A
12:20 AM59 °FRain. Overcast.10 mph88%30.04 "HgN/A
11:20 PM
Oct 20
61 °FRain showers. Mostly cloudy.9 mph83%30.07 "Hg5 mi
10:50 PM59 °FSprinkles. Mostly cloudy.2 mph94%30.07 "Hg4 mi
10:20 PM61 °FLight rain. Overcast.3 mph88%30.07 "Hg4 mi
9:50 PM59 °FRain. Overcast.1 mph88%30.07 "Hg3 mi
9:20 PM59 °FLight rain. Passing clouds.1 mph88%30.07 "Hg3 mi
8:50 PM61 °FLight rain. Passing clouds.1 mph83%30.04 "HgN/A
8:20 PM61 °FClear.1 mph83%30.04 "Hg10 mi
7:50 PM61 °FClear.2 mph83%30.04 "Hg10 mi
7:20 PM63 °FSunny.No wind73%30.07 "Hg10 mi
6:50 PM63 °FSunny.2 mph73%30.07 "Hg10 mi
6:20 PM64 °FSunny.5 mph64%30.04 "Hg10 mi
5:50 PM66 °FSunny.6 mph60%30.04 "Hg10 mi
5:20 PM66 °FSunny.6 mph64%30.07 "Hg10 mi
Weather by CustomWeather, © 2014

See weather overviewHow to use our weather pages